QPF
0.01 0.01 0.01 0.02 0.02 0.02 0.02 0.01 0.02 0.02 0.04 0.06 0.08 0.09 0.08 0.10 0.11 0.09 0.10 0.15 0.15 0.10 0.06 0.08 0.09 0.07 0.05 0.04 0.04 0.05 0.05 0.04 0.03 0.03 0.04 0.05 0.05 0.04 0.03 0.02 0.01 0.01 0.01
0.02 0.02 0.02 0.02 0.02 0.01 0.02 0.02 0.01 0.01 0.03 0.05 0.07 0.09 0.09 0.08 0.09 0.09 0.10 0.13 0.16 0.14 0.09 0.06 0.07 0.09 0.08 0.07 0.05 0.05 0.06 0.06 0.05 0.03 0.04 0.05 0.06 0.05 0.03 0.02 0.01 0.01 0.01
0.03 0.02 0.02 0.02 0.02 0.02 0.02 0.02 0.02 0.01 0.02 0.04 0.05 0.07 0.10 0.08 0.08 0.08 0.08 0.11 0.14 0.15 0.12 0.09 0.07 0.07 0.09 0.10 0.08 0.07 0.08 0.07 0.07 0.04 0.03 0.03 0.04 0.03 0.03 0.02 0.02 0.01 0.01
0.03 0.03 0.02 0.02 0.02 0.02 0.02 0.02 0.02 0.02 0.02 0.03 0.04 0.06 0.09 0.07 0.06 0.07 0.07 0.08 0.11 0.13 0.14 0.13 0.09 0.08 0.09 0.12 0.14 0.12 0.12 0.11 0.09 0.06 0.04 0.02 0.02 0.02 0.02 0.02 0.02 0.01 0.01
0.03 0.04 0.03 0.03 0.03 0.03 0.02 0.02 0.03 0.03 0.02 0.03 0.05 0.05 0.08 0.07 0.05 0.07 0.07 0.07 0.08 0.08 0.09 0.12 0.13 0.12 0.10 0.10 0.12 0.14 0.15 0.15 0.14 0.11 0.07 0.04 0.02 0.02 0.01 0.02 0.02 0.01 0.01
0.03 0.03 0.04 0.04 0.03 0.04 0.04 0.03 0.04 0.04 0.03 0.04 0.05 0.06 0.07 0.09 0.06 0.06 0.08 0.07 0.09 0.08 0.05 0.05 0.08 0.11 0.11 0.10 0.10 0.11 0.12 0.12 0.11 0.09 0.08 0.07 0.04 0.03 0.02 0.02 0.02 0.02 0.01
0.04 0.04 0.03 0.04 0.06 0.07 0.07 0.05 0.04 0.03 0.03 0.03 0.04 0.06 0.06 0.09 0.08 0.05 0.06 0.07 0.10 0.10 0.06 0.04 0.04 0.05 0.06 0.07 0.09 0.10 0.10 0.11 0.11 0.09 0.05 0.04 0.04 0.03 0.02 0.02 0.01 0.02 0.02
0.03 0.04 0.04 0.04 0.05 0.07 0.07 0.06 0.04 0.03 0.02 0.02 0.02 0.04 0.06 0.09 0.09 0.06 0.04 0.06 0.09 0.11 0.07 0.04 0.02 0.03 0.03 0.04 0.06 0.07 0.08 0.09 0.10 0.11 0.08 0.05 0.03 0.02 0.02 0.02 0.02 0.02 0.02
0.02 0.03 0.04 0.04 0.05 0.05 0.06 0.05 0.03 0.02 0.02 0.02 0.02 0.03 0.05 0.07 0.10 0.08 0.05 0.05 0.08 0.12 0.10 0.06 0.03 0.03 0.03 0.03 0.04 0.05 0.06 0.07 0.08 0.07 0.08 0.07 0.05 0.03 0.02 0.02 0.02 0.01 0.01
0.01 0.02 0.03 0.04 0.05 0.06 0.07 0.05 0.03 0.03 0.03 0.02 0.02 0.03 0.05 0.06 0.07 0.10 0.07 0.05 0.08 0.13 0.12 0.09 0.05 0.03 0.03 0.03 0.03 0.03 0.04 0.05 0.07 0.07 0.06 0.06 0.05 0.03 0.02 0.02 0.02 0.01 0.02
0.01 0.02 0.02 0.02 0.03 0.05 0.07 0.08 0.06 0.04 0.04 0.03 0.02 0.03 0.04 0.06 0.06 0.08 0.08 0.06 0.07 0.12 0.13 0.11 0.06 0.03 0.02 0.03 0.02 0.02 0.03 0.04 0.05 0.06 0.06 0.06 0.05 0.04 0.03 0.02 0.02 0.02 0.01
0.01 0.01 0.02 0.02 0.02 0.03 0.05 0.08 0.09 0.06 0.05 0.05 0.04 0.04 0.05 0.06 0.07 0.06 0.08 0.06 0.06 0.10 0.13 0.12 0.09 0.05 0.03 0.02 0.02 0.02 0.02 0.03 0.03 0.04 0.05 0.05 0.05 0.05 0.04 0.03 0.02 0.01 0.01
0.01 0.01 0.01 0.01 0.02 0.02 0.03 0.06 0.08 0.09 0.08 0.08 0.08 0.07 0.07 0.08 0.07 0.06 0.06 0.07 0.06 0.08 0.11 0.12 0.10 0.07 0.04 0.03 0.03 0.02 0.03 0.02 0.02 0.03 0.03 0.04 0.05 0.05 0.04 0.03 0.02 0.01 0.01
0.01 0.01 0.01 0.01 0.01 0.01 0.02 0.03 0.05 0.07 0.09 0.10 0.10 0.10 0.11 0.11 0.08 0.07 0.04 0.06 0.05 0.07 0.09 0.11 0.11 0.09 0.06 0.03 0.02 0.02 0.02 0.03 0.02 0.02 0.02 0.03 0.03 0.04 0.04 0.04 0.02 0.02 0.01
0.01 0.01 0.01 0.01 0.01 0.01 0.01 0.02 0.03 0.04 0.06 0.09 0.11 0.11 0.13 0.15 0.14 0.09 0.06 0.05 0.05 0.07 0.08 0.08 0.11 0.12 0.09 0.05 0.03 0.02 0.02 0.02 0.02 0.02 0.02 0.02 0.02 0.02 0.03 0.04 0.03 0.02 0.02
0.02 0.01 0.01 0.01 0.01 0.01 0.02 0.03 0.02 0.03 0.04 0.06 0.09 0.10 0.12 0.15 0.18 0.17 0.12 0.09 0.07 0.07 0.08 0.08 0.08 0.10 0.10 0.08 0.04 0.02 0.02 0.02 0.02 0.02 0.02 0.02 0.02 0.02 0.02 0.03 0.03 0.02 0.02
0.02 0.02 0.01 0.01 0.01 0.01 0.01 0.02 0.02 0.02 0.03 0.03 0.05 0.07 0.09 0.13 0.16 0.19 0.19 0.16 0.13 0.10 0.08 0.08 0.07 0.07 0.09 0.08 0.06 0.03 0.03 0.03 0.03 0.02 0.02 0.02 0.02 0.02 0.02 0.02 0.03 0.03 0.03
0.02 0.02 0.02 0.02 0.02 0.01 0.01 0.01 0.01 0.02 0.02 0.03 0.03 0.05 0.06 0.09 0.12 0.14 0.18 0.19 0.16 0.16 0.12 0.09 0.08 0.07 0.08 0.08 0.07 0.06 0.04 0.04 0.03 0.02 0.02 0.03 0.03 0.04 0.03 0.04 0.04 0.04 0.04
0.02 0.02 0.02 0.02 0.02 0.02 0.02 0.01 0.01 0.02 0.02 0.03 0.03 0.04 0.06 0.07 0.08 0.10 0.13 0.16 0.16 0.15 0.14 0.11 0.09 0.08 0.08 0.08 0.07 0.07 0.06 0.04 0.03 0.02 0.02 0.02 0.02 0.03 0.05 0.05 0.05 0.05 0.04
0.03 0.02 0.02 0.02 0.02 0.02 0.02 0.02 0.02 0.02 0.03 0.03 0.03 0.04 0.05 0.06 0.07 0.08 0.10 0.14 0.16 0.16 0.13 0.11 0.10 0.09 0.09 0.08 0.06 0.06 0.06 0.04 0.03 0.02 0.02 0.02 0.02 0.03 0.03 0.05 0.05 0.05 0.04
0.03 0.03 0.03 0.03 0.02 0.02 0.03 0.03 0.03 0.03 0.03 0.03 0.03 0.03 0.04 0.05 0.05 0.06 0.07 0.10 0.12 0.12 0.11 0.10 0.10 0.09 0.08 0.08 0.07 0.05 0.04 0.04 0.04 0.03 0.02 0.02 0.03 0.04 0.04 0.03 0.04 0.05 0.04
0.04 0.03 0.03 0.03 0.03 0.03 0.03 0.03 0.03 0.03 0.03 0.03 0.02 0.02 0.03 0.03 0.04 0.05 0.05 0.07 0.08 0.08 0.07 0.08 0.08 0.08 0.08 0.07 0.07 0.06 0.04 0.04 0.03 0.03 0.02 0.03 0.04 0.04 0.04 0.04 0.03 0.04 0.04
0.04 0.04 0.04 0.04 0.04 0.04 0.04 0.04 0.03 0.03 0.02 0.02 0.02 0.02 0.02 0.03 0.03 0.04 0.05 0.06 0.07 0.07 0.06 0.05 0.05 0.07 0.07 0.07 0.07 0.06 0.05 0.05 0.04 0.03 0.03 0.04 0.04 0.04 0.04 0.04 0.04 0.03 0.03
0.04 0.04 0.04 0.04 0.05 0.05 0.04 0.04 0.04 0.03 0.02 0.02 0.03 0.03 0.03 0.03 0.04 0.05 0.05 0.06 0.07 0.06 0.05 0.05 0.05 0.05 0.06 0.06 0.06 0.06 0.05 0.05 0.05 0.04 0.04 0.04 0.05 0.05 0.05 0.05 0.04 0.04 0.03
0.03 0.03 0.03 0.04 0.04 0.04 0.05 0.05 0.04 0.03 0.02 0.03 0.03 0.04 0.04 0.04 0.05 0.05 0.06 0.07 0.07 0.07 0.07 0.06 0.06 0.05 0.06 0.06 0.06 0.06 0.05 0.04 0.04 0.04 0.05 0.05 0.05 0.05 0.05 0.04 0.04 0.04 0.04
0.02 0.02 0.02 0.03 0.03 0.04 0.04 0.04 0.04 0.02 0.02 0.02 0.03 0.03 0.04 0.05 0.05 0.05 0.06 0.07 0.07 0.07 0.07 0.07 0.07 0.06 0.06 0.06 0.06 0.05 0.05 0.05 0.05 0.04 0.05 0.05 0.05 0.05 0.04 0.04 0.04 0.04 0.04
MSLP
1020.38 1021.26 1022.09 1022.84 1023.46 1023.95 1024.28 1024.46 1024.51 1024.46 1024.35 1024.22 1024.11 1024.03 1024.00 1024.02 1024.08 1024.15 1024.19 1024.20 1024.13 1023.99 1023.79 1023.54 1023.27 1023.01 1022.78 1022.59 1022.46 1022.36 1022.28 1022.19 1022.07 1021.90 1021.69 1021.43 1021.14 1020.85 1020.58 1020.36 1020.18 1020.06 1019.98
1019.38 1020.33 1021.25 1022.09 1022.80 1023.37 1023.80 1024.08 1024.22 1024.27 1024.24 1024.17 1024.10 1024.05 1024.03 1024.05 1024.10 1024.17 1024.23 1024.27 1024.26 1024.18 1024.06 1023.88 1023.68 1023.47 1023.27 1023.10 1022.95 1022.84 1022.74 1022.64 1022.51 1022.35 1022.15 1021.91 1021.63 1021.34 1021.06 1020.79 1020.56 1020.38 1020.25
1018.48 1019.49 1020.45 1021.34 1022.11 1022.75 1023.24 1023.61 1023.85 1023.99 1024.05 1024.07 1024.06 1024.04 1024.04 1024.06 1024.11 1024.17 1024.24 1024.30 1024.34 1024.33 1024.28 1024.19 1024.06 1023.92 1023.76 1023.61 1023.47 1023.35 1023.24 1023.13 1023.01 1022.87 1022.70 1022.49 1022.24 1021.97 1021.68 1021.39 1021.12 1020.88 1020.69
1017.73 1018.77 1019.76 1020.66 1021.45 1022.11 1022.66 1023.08 1023.41 1023.64 1023.80 1023.91 1023.97 1024.01 1024.04 1024.08 1024.12 1024.18 1024.25 1024.33 1024.40 1024.46 1024.48 1024.47 1024.42 1024.34 1024.23 1024.11 1023.98 1023.86 1023.75 1023.65 1023.55 1023.44 1023.31 1023.15 1022.94 1022.70 1022.42 1022.12 1021.82 1021.55 1021.31
1017.15 1018.19 1019.17 1020.06 1020.84 1021.50 1022.06 1022.52 1022.91 1023.23 1023.49 1023.69 1023.84 1023.95 1024.02 1024.08 1024.14 1024.20 1024.27 1024.36 1024.46 1024.56 1024.65 1024.71 1024.73 1024.70 1024.64 1024.55 1024.45 1024.34 1024.24 1024.16 1024.08 1024.02 1023.94 1023.83 1023.68 1023.48 1023.23 1022.94 1022.62 1022.32 1022.04
1016.71 1017.74 1018.69 1019.53 1020.27 1020.90 1021.45 1021.93 1022.36 1022.75 1023.10 1023.39 1023.64 1023.82 1023.96 1024.06 1024.13 1024.20 1024.29 1024.39 1024.51 1024.65 1024.78 1024.89 1024.96 1024.99 1024.97 1024.91 1024.82 1024.73 1024.65 1024.60 1024.56 1024.54 1024.52 1024.47 1024.38 1024.24 1024.02 1023.75 1023.44 1023.11 1022.81
1016.35 1017.35 1018.26 1019.04 1019.72 1020.30 1020.81 1021.29 1021.74 1022.18 1022.61 1022.99 1023.33 1023.60 1023.81 1023.96 1024.07 1024.16 1024.26 1024.38 1024.51 1024.67 1024.84 1024.99 1025.10 1025.17 1025.18 1025.15 1025.08 1025.01 1024.95 1024.92 1024.93 1024.96 1024.99 1025.01 1024.98 1024.89 1024.72 1024.47 1024.17 1023.85 1023.52
1016.04 1016.99 1017.83 1018.54 1019.14 1019.66 1020.12 1020.58 1021.04 1021.52 1022.00 1022.47 1022.89 1023.25 1023.53 1023.75 1023.91 1024.03 1024.15 1024.28 1024.44 1024.62 1024.81 1024.98 1025.13 1025.22 1025.26 1025.25 1025.21 1025.15 1025.12 1025.11 1025.15 1025.22 1025.31 1025.38 1025.41 1025.38 1025.25 1025.04 1024.76 1024.44 1024.12
1015.72 1016.61 1017.37 1018.01 1018.52 1018.96 1019.37 1019.79 1020.24 1020.74 1021.26 1021.79 1022.29 1022.73 1023.09 1023.37 1023.59 1023.76 1023.92 1024.08 1024.26 1024.46 1024.67 1024.86 1025.03 1025.15 1025.21 1025.22 1025.19 1025.16 1025.14 1025.16 1025.22 1025.32 1025.45 1025.57 1025.64 1025.65 1025.57 1025.40 1025.15 1024.85 1024.54
1015.40 1016.20 1016.87 1017.41 1017.84 1018.20 1018.54 1018.91 1019.34 1019.84 1020.39 1020.96 1021.52 1022.02 1022.46 1022.81 1023.09 1023.32 1023.52 1023.72 1023.94 1024.17 1024.41 1024.63 1024.82 1024.97 1025.05 1025.08 1025.07 1025.05 1025.04 1025.07 1025.15 1025.27 1025.42 1025.57 1025.68 1025.73 1025.69 1025.55 1025.34 1025.07 1024.78
1015.06 1015.75 1016.32 1016.76 1017.09 1017.37 1017.65 1017.97 1018.37 1018.85 1019.40 1020.00 1020.59 1021.14 1021.63 1022.05 1022.39 1022.69 1022.95 1023.20 1023.47 1023.74 1024.02 1024.29 1024.51 1024.69 1024.80 1024.85 1024.86 1024.85 1024.85 1024.89 1024.98 1025.10 1025.26 1025.42 1025.55 1025.62 1025.62 1025.52 1025.35 1025.12 1024.85
1014.75 1015.32 1015.76 1016.09 1016.33 1016.52 1016.72 1016.98 1017.34 1017.79 1018.33 1018.92 1019.53 1020.11 1020.64 1021.11 1021.52 1021.87 1022.20 1022.53 1022.85 1023.19 1023.52 1023.84 1024.11 1024.32 1024.47 1024.55 1024.58 1024.59 1024.61 1024.64 1024.72 1024.85 1025.00 1025.16 1025.30 1025.39 1025.41 1025.35 1025.22 1025.03 1024.80
1014.49 1014.91 1015.22 1015.43 1015.56 1015.67 1015.80 1016.00 1016.30 1016.70 1017.21 1017.77 1018.37 1018.96 1019.52 1020.03 1020.49 1020.90 1021.30 1021.70 1022.10 1022.50 1022.90 1023.28 1023.61 1023.87 1024.06 1024.18 1024.25 1024.28 1024.30 1024.34 1024.41 1024.53 1024.67 1024.82 1024.97 1025.07 1025.11 1025.08 1024.99 1024.83 1024.64
1014.28 1014.54 1014.71 1014.80 1014.83 1014.85 1014.90 1015.03 1015.27 1015.62 1016.07 1016.59 1017.16 1017.74 1018.30 1018.83 1019.33 1019.81 1020.27 1020.74 1021.21 1021.69 1022.16 1022.60 1023.00 1023.32 1023.56 1023.73 1023.82 1023.88 1023.92 1023.96 1024.03 1024.14 1024.27 1024.41 1024.55 1024.66 1024.73 1024.73 1024.67 1024.55 1024.40
1014.12 1014.22 1014.25 1014.21 1014.14 1014.06 1014.04 1014.10 1014.27 1014.55 1014.94 1015.42 1015.94 1016.49 1017.04 1017.58 1018.11 1018.62 1019.14 1019.67 1020.22 1020.76 1021.30 1021.81 1022.26 1022.64 1022.93 1023.14 1023.28 1023.37 1023.43 1023.48 1023.55 1023.65 1023.78 1023.92 1024.06 1024.17 1024.25 1024.27 1024.25 1024.17 1024.04
1013.97 1013.92 1013.81 1013.65 1013.47 1013.32 1013.22 1013.21 1013.31 1013.53 1013.85 1014.26 1014.74 1015.25 1015.78 1016.31 1016.85 1017.40 1017.96 1018.54 1019.14 1019.74 1020.33 1020.89 1021.39 1021.82 1022.16 1022.42 1022.60 1022.71 1022.80 1022.87 1022.95 1023.05 1023.18 1023.31 1023.45 1023.57 1023.66 1023.71 1023.70 1023.65 1023.55
1013.79 1013.59 1013.35 1013.08 1012.82 1012.58 1012.41 1012.34 1012.38 1012.54 1012.80 1013.16 1013.58 1014.05 1014.55 1015.07 1015.62 1016.18 1016.77 1017.39 1018.02 1018.66 1019.29 1019.89 1020.42 1020.88 1021.26 1021.55 1021.76 1021.91 1022.02 1022.12 1022.21 1022.32 1022.45 1022.59 1022.73 1022.86 1022.95 1023.01 1023.02 1022.98 1022.90
1013.52 1013.20 1012.84 1012.48 1012.13 1011.83 1011.61 1011.49 1011.48 1011.59 1011.80 1012.10 1012.48 1012.92 1013.40 1013.91 1014.46 1015.03 1015.64 1016.28 1016.93 1017.59 1018.24 1018.85 1019.39 1019.87 1020.27 1020.58 1020.81 1020.99 1021.13 1021.24 1021.36 1021.48 1021.62 1021.76 1021.90 1022.02 1022.12 1022.17 1022.18 1022.15 1022.07
1013.14 1012.71 1012.25 1011.81 1011.40 1011.06 1010.80 1010.64 1010.60 1010.67 1010.85 1011.12 1011.47 1011.89 1012.35 1012.86 1013.42 1014.00 1014.62 1015.27 1015.93 1016.60 1017.24 1017.84 1018.39 1018.87 1019.26 1019.58 1019.83 1020.02 1020.18 1020.32 1020.45 1020.58 1020.72 1020.86 1021.00 1021.11 1021.19 1021.23 1021.23 1021.18 1021.09
1012.64 1012.11 1011.58 1011.08 1010.63 1010.25 1009.97 1009.80 1009.74 1009.80 1009.96 1010.22 1010.57 1010.98 1011.45 1011.97 1012.53 1013.14 1013.77 1014.42 1015.09 1015.74 1016.37 1016.96 1017.49 1017.95 1018.34 1018.65 1018.90 1019.10 1019.27 1019.42 1019.55 1019.69 1019.83 1019.96 1020.08 1020.17 1020.22 1020.24 1020.20 1020.13 1020.01
1012.05 1011.44 1010.86 1010.31 1009.83 1009.44 1009.15 1008.98 1008.92 1008.98 1009.15 1009.42 1009.77 1010.20 1010.69 1011.23 1011.82 1012.44 1013.10 1013.76 1014.42 1015.07 1015.69 1016.25 1016.76 1017.20 1017.56 1017.86 1018.10 1018.30 1018.47 1018.61 1018.75 1018.88 1019.00 1019.11 1019.20 1019.26 1019.28 1019.25 1019.17 1019.05 1018.90
1011.40 1010.74 1010.12 1009.55 1009.06 1008.66 1008.38 1008.21 1008.17 1008.24 1008.43 1008.72 1009.10 1009.55 1010.07 1010.65 1011.27 1011.93 1012.60 1013.28 1013.95 1014.59 1015.19 1015.74 1016.22 1016.63 1016.98 1017.26 1017.49 1017.67 1017.82 1017.96 1018.08 1018.19 1018.28 1018.36 1018.41 1018.43 1018.39 1018.31 1018.19 1018.02 1017.81
1010.76 1010.06 1009.41 1008.83 1008.34 1007.95 1007.67 1007.52 1007.50 1007.60 1007.81 1008.13 1008.54 1009.03 1009.59 1010.21 1010.87 1011.56 1012.26 1012.96 1013.63 1014.27 1014.87 1015.40 1015.86 1016.25 1016.58 1016.83 1017.04 1017.21 1017.34 1017.45 1017.54 1017.62 1017.68 1017.71 1017.72 1017.68 1017.60 1017.46 1017.28 1017.06 1016.81
1010.16 1009.45 1008.79 1008.20 1007.72 1007.34 1007.08 1006.94 1006.94 1007.06 1007.30 1007.65 1008.09 1008.62 1009.22 1009.88 1010.58 1011.30 1012.02 1012.74 1013.42 1014.06 1014.65 1015.18 1015.62 1016.00 1016.30 1016.54 1016.73 1016.87 1016.98 1017.06 1017.11 1017.15 1017.16 1017.15 1017.10 1017.02 1016.88 1016.70 1016.48 1016.21 1015.92
1009.64 1008.92 1008.27 1007.69 1007.21 1006.84 1006.59 1006.47 1006.49 1006.63 1006.90 1007.27 1007.75 1008.31 1008.94 1009.63 1010.35 1011.09 1011.84 1012.56 1013.26 1013.90 1014.49 1015.00 1015.44 1015.80 1016.09 1016.32 1016.48 1016.60 1016.67 1016.71 1016.73 1016.72 1016.69 1016.63 1016.53 1016.40 1016.22 1016.01 1015.75 1015.46 1015.13
1009.19 1008.49 1007.84 1007.28 1006.82 1006.46 1006.22 1006.12 1006.15 1006.31 1006.60 1006.99 1007.49 1008.08 1008.73 1009.44 1010.17 1010.93 1011.68 1012.40 1013.09 1013.73 1014.31 1014.82 1015.25 1015.60 1015.88 1016.08 1016.23 1016.32 1016.36 1016.37 1016.34 1016.29 1016.21 1016.10 1015.97 1015.81 1015.61 1015.37 1015.09 1014.78 1014.44
Thickness
5526 5526 5527 5529 5531 5534 5538 5542 5547 5551 5556 5561 5567 5573 5578 5583 5587 5591 5595 5598 5601 5603 5605 5607 5608 5609 5611 5613 5614 5615 5615 5615 5615 5615 5615 5616 5618 5620 5621 5622 5623 5624 5624
5514 5515 5516 5518 5520 5523 5526 5531 5536 5540 5545 5551 5557 5562 5568 5573 5577 5581 5586 5589 5592 5595 5597 5599 5600 5601 5603 5604 5605 5607 5608 5607 5609 5611 5611 5611 5612 5613 5615 5616 5617 5618 5619
5503 5504 5505 5507 5509 5512 5516 5521 5525 5529 5534 5539 5545 5551 5557 5562 5567 5572 5576 5580 5583 5586 5589 5590 5592 5593 5595 5597 5598 5600 5602 5602 5602 5605 5607 5609 5611 5611 5609 5610 5611 5612 5613
5492 5493 5494 5496 5498 5501 5505 5509 5513 5518 5523 5527 5534 5541 5549 5555 5559 5564 5568 5571 5573 5576 5579 5581 5583 5585 5586 5589 5591 5593 5595 5595 5596 5597 5600 5603 5607 5607 5606 5605 5605 5606 5607
5480 5481 5482 5484 5487 5490 5493 5497 5501 5506 5512 5517 5524 5531 5538 5545 5549 5554 5558 5562 5565 5567 5570 5573 5574 5576 5578 5580 5582 5584 5586 5588 5590 5592 5593 5595 5596 5599 5602 5602 5600 5600 5601
5469 5471 5472 5474 5476 5479 5481 5485 5490 5496 5502 5507 5513 5521 5528 5534 5539 5544 5549 5553 5555 5558 5561 5564 5566 5568 5570 5571 5573 5576 5578 5580 5583 5585 5587 5589 5590 5592 5595 5597 5595 5595 5595
5458 5460 5462 5464 5467 5469 5472 5475 5480 5486 5492 5497 5503 5510 5517 5524 5529 5534 5540 5544 5547 5550 5553 5555 5558 5560 5562 5563 5565 5567 5570 5573 5575 5578 5580 5583 5584 5586 5587 5589 5589 5589 5588
5446 5448 5451 5454 5457 5460 5463 5466 5470 5475 5481 5487 5493 5499 5506 5513 5520 5524 5530 5534 5538 5542 5544 5546 5549 5551 5553 5555 5556 5559 5561 5564 5567 5569 5572 5574 5576 5577 5579 5580 5582 5582 5582
5436 5438 5440 5443 5446 5449 5454 5457 5461 5466 5470 5476 5483 5490 5497 5504 5509 5514 5520 5525 5529 5532 5535 5538 5540 5542 5544 5546 5548 5550 5553 5555 5558 5560 5563 5565 5568 5569 5571 5572 5574 5577 5578
5428 5430 5432 5434 5436 5440 5444 5448 5452 5456 5461 5467 5473 5480 5487 5493 5498 5504 5510 5515 5519 5523 5526 5529 5532 5534 5536 5538 5539 5542 5544 5546 5548 5551 5553 5556 5559 5561 5562 5563 5565 5568 5571
5417 5420 5422 5425 5427 5431 5435 5439 5442 5446 5451 5457 5463 5470 5477 5482 5488 5495 5501 5506 5510 5513 5517 5520 5522 5525 5527 5529 5531 5533 5535 5537 5539 5542 5544 5547 5549 5552 5553 5554 5556 5558 5561
5407 5410 5413 5416 5419 5421 5425 5430 5434 5438 5443 5448 5454 5460 5467 5473 5479 5486 5491 5496 5501 5505 5509 5511 5514 5516 5518 5520 5522 5525 5526 5529 5531 5533 5535 5538 5540 5543 5545 5546 5547 5549 5552
5398 5401 5404 5407 5409 5412 5415 5420 5425 5430 5434 5439 5445 5451 5458 5464 5471 5476 5481 5486 5491 5495 5498 5501 5504 5505 5507 5510 5513 5515 5518 5520 5522 5524 5527 5530 5532 5535 5536 5538 5539 5540 5541
5388 5391 5395 5397 5400 5403 5407 5412 5416 5421 5426 5432 5437 5443 5450 5455 5461 5466 5472 5477 5481 5485 5488 5490 5493 5495 5497 5499 5502 5505 5508 5510 5512 5515 5518 5521 5524 5526 5527 5529 5530 5531 5532
5378 5381 5384 5388 5391 5394 5398 5402 5407 5412 5417 5423 5429 5434 5440 5445 5450 5456 5462 5467 5470 5474 5476 5479 5481 5484 5487 5489 5491 5494 5498 5501 5503 5505 5508 5511 5514 5516 5517 5519 5521 5522 5522
5368 5370 5373 5377 5381 5385 5389 5394 5398 5402 5408 5414 5420 5426 5431 5437 5442 5447 5452 5457 5460 5462 5464 5467 5471 5474 5477 5479 5481 5484 5487 5490 5493 5495 5498 5501 5503 5505 5506 5508 5510 5511 5513
5357 5359 5362 5366 5369 5374 5378 5383 5388 5393 5398 5405 5411 5417 5422 5428 5433 5438 5442 5447 5450 5452 5455 5458 5461 5465 5467 5469 5471 5473 5477 5480 5483 5486 5489 5491 5494 5495 5497 5499 5499 5500 5502
5347 5350 5353 5356 5359 5363 5368 5374 5379 5384 5390 5396 5401 5407 5413 5419 5424 5428 5433 5437 5440 5443 5446 5448 5451 5453 5456 5458 5460 5462 5465 5469 5472 5476 5479 5482 5484 5485 5487 5489 5490 5491 5492
5338 5341 5344 5346 5350 5354 5359 5365 5371 5376 5382 5387 5393 5399 5404 5409 5415 5420 5425 5428 5431 5435 5437 5440 5442 5444 5446 5447 5450 5451 5454 5458 5462 5466 5469 5472 5474 5476 5477 5479 5480 5482 5482
5330 5332 5336 5339 5343 5347 5351 5357 5363 5368 5373 5378 5383 5389 5395 5400 5406 5411 5415 5419 5422 5425 5428 5430 5432 5435 5437 5438 5440 5441 5445 5449 5453 5456 5459 5461 5464 5465 5465 5468 5470 5471 5472
5323 5325 5328 5332 5335 5339 5343 5349 5355 5360 5364 5369 5375 5381 5387 5392 5397 5402 5406 5410 5413 5415 5418 5420 5421 5424 5427 5429 5431 5432 5436 5440 5444 5447 5450 5452 5453 5454 5455 5457 5459 5461 5460
5316 5317 5320 5324 5327 5331 5335 5341 5346 5351 5356 5362 5368 5374 5378 5383 5387 5392 5396 5400 5403 5406 5408 5410 5411 5413 5416 5419 5422 5424 5427 5431 5435 5439 5441 5443 5443 5443 5443 5445 5446 5446 5446
5307 5309 5312 5316 5320 5323 5327 5332 5337 5341 5347 5354 5360 5365 5370 5374 5379 5383 5387 5390 5393 5397 5400 5401 5403 5405 5407 5411 5413 5415 5418 5421 5425 5429 5431 5431 5431 5432 5432 5433 5434 5433 5433
5298 5300 5303 5308 5313 5316 5320 5324 5329 5333 5340 5346 5351 5356 5360 5365 5369 5373 5377 5380 5383 5387 5390 5392 5394 5396 5399 5401 5403 5405 5406 5408 5412 5415 5417 5418 5419 5419 5420 5420 5420 5421 5422
5291 5293 5295 5300 5304 5309 5313 5317 5321 5326 5332 5338 5342 5346 5350 5355 5360 5363 5366 5369 5372 5376 5380 5383 5384 5387 5389 5391 5393 5396 5397 5399 5402 5403 5404 5405 5407 5407 5408 5408 5409 5408 5408
5284 5286 5289 5292 5296 5301 5305 5309 5313 5318 5323 5328 5333 5337 5341 5345 5349 5353 5356 5358 5361 5364 5367 5371 5374 5376 5379 5381 5382 5384 5387 5388 5390 5392 5394 5395 5396 5396 5397 5397 5397 5397 5396